#timestamp,LO_Frequency,Hit,StdDev 
1680188415.2,286046992.6,N
1680188435.0,286046992.8,N
1680188435.9,286046992.8,N
1680188455.8,286046993.0,N
1680188475.6,286046994.7,N
1680188495.4,286046995.9,N
1680188515.3,286046993.0,N
1680188535.1,286046992.4,N
1680188555.9,286046992.6,N
1680188575.7,286046991.9,Y
1680188595.5,286047001.7,P
1680188615.4,286047009.1,N
1680188635.2,286047003.8,N
1680188655.0,286046999.0,N
1680188655.9,286046999.0,N
1680188675.8,286046994.8,N
1680188695.6,286046990.3,N
1680188715.5,286046996.3,N
1680188735.3,286046995.2,N
1680188755.1,286046996.7,N
1680188775.9,286046996.6,N
1680188795.7,286047001.9,N
1680188815.5,286047008.6,N
1680188835.4,286047010.2,N
1680188855.2,286047012.1,N
1680188875.1,286047006.2,N
1680188876.0,286047006.2,N
1680188895.8,286047005.8,N
1680188915.6,286047007.1,N
1680188935.5,286047000.2,N
1680188955.3,286046999.1,N
1680188975.1,286047000.8,N
1680188995.9,286047000.2,N
1680189015.7,286046999.2,N
1680189035.6,286046997.2,N
1680189055.4,286047000.3,N
1680189075.2,286046999.1,N
1680189095.1,286046999.2,N
1680189096.0,286046999.2,N
1680189115.8,286046999.4,N
1680189135.6,286046995.7,N
1680189155.5,286046996.3,N
1680189175.3,286046994.3,N
1680189195.2,286047000.4,N
1680189215.9,286047004.3,N
1680189235.7,286047010.8,N
1680189255.6,286047010.2,N
1680189275.4,286047015.6,Y
1680189295.2,286047011.0,P
1680189315.1,286047009.8,N
1680189316.0,286047009.8,N
1680189335.8,286047006.5,N
1680189355.7,286047006.0,N
1680189375.5,286047001.9,N
1680189395.3,286047001.3,N
1680189415.2,286047009.2,N
1680189435.0,286047001.6,N
1680189435.9,286047001.6,N
1680189455.7,286046995.2,N
1680189475.6,286046991.8,N
1680189495.4,286046987.1,N
1680189515.3,286046989.8,N
1680189535.1,286046987.5,N
1680189536.0,286046987.5,N
1680189555.8,286046999.1,N
1680189575.7,286047002.3,N
1680189595.5,286047003.6,N
1680189615.3,286047002.0,N
1680189635.2,286047005.7,N
1680189655.0,286047003.2,N
1680189655.9,286047003.2,N
1680189675.8,286046999.3,N
1680189695.6,286046997.0,N
1680189715.4,286046997.7,N
1680189735.3,286046995.1,N
1680189755.1,286046997.1,N
1680189775.9,286046999.4,N
1680189795.7,286046996.9,N
1680189815.5,286046996.7,N
1680189835.4,286046997.4,N
1680189855.2,286046990.1,N
1680189875.1,286046987.0,N
1680189876.0,286046987.0,N
1680189895.8,286046987.4,N
1680189915.6,286046987.5,N
1680189935.5,286046989.6,N
1680189955.3,286046987.3,N
1680189975.2,286046989.9,N
1680189995.9,286046987.3,N
1680190015.7,286046987.7,N
1680190035.6,286046990.0,N
1680190055.4,286046986.4,N
1680190075.2,286046986.7,N
1680190095.1,286046985.9,N
1680190096.0,286046985.9,N
1680190115.8,286046987.1,N
1680190135.7,286046995.6,N
1680190155.5,286046996.6,N
1680190175.3,286047002.2,N
1680190195.2,286047001.1,N
1680190215.9,286046996.4,N
1680190235.7,286046993.6,N
1680190255.6,286046993.2,N
1680190275.4,286046991.4,N
1680190295.2,286046989.7,N
1680190315.1,286046988.9,N
1680190316.0,286046988.9,N
1680190335.8,286046992.4,N
1680190355.7,286046994.1,N
1680190375.5,286046995.6,N
1680190395.3,286046996.1,N
1680190415.2,286046997.1,N
1680190435.0,286046993.6,N
1680190435.9,286046993.6,N
1680190455.8,286046993.4,N
1680190475.6,286046996.0,N
1680190495.4,286046994.9,N
1680190515.3,286046996.4,N
1680190535.1,286046996.1,N
1680190555.8,286046997.4,N
1680190575.7,286046998.2,N
1680190595.5,286047000.3,N
1680190615.4,286047002.6,N
1680190635.2,286047001.1,N
1680190655.0,286046997.2,N
1680190655.9,286046997.2,N
1680190675.8,286046993.3,N
1680190695.6,286046992.4,N
1680190715.4,286046994.8,N
1680190735.3,286046996.0,N
1680190755.1,286046999.8,N
1680190775.9,286047001.3,N
1680190795.7,286047002.9,N
1680190815.5,286046999.1,N
1680190835.4,286046993.8,N
1680190855.2,286046990.7,N
1680190875.0,286046987.6,Y
1680190876.0,286046987.6,P
1680190895.8,286046992.6,N
1680190915.6,286046990.6,N
1680190935.5,286046990.7,N
1680190955.3,286046990.9,Y
1680190975.1,286046998.1,P
1680190995.9,286046999.8,N
1680191015.7,286047000.4,N
1680191035.5,286047001.5,N
1680191055.4,286047004.9,N
1680191075.2,286047001.3,N
1680191095.1,286047007.1,N
1680191096.0,286047007.1,N
1680191115.8,286047009.1,N
1680191135.6,286047006.9,N
1680191155.5,286047005.8,N
1680191175.3,286047007.1,N
1680191195.1,286047005.3,N
1680191215.9,286047004.0,N
1680191235.7,286047000.9,N
1680191255.6,286046999.5,N
1680191275.4,286046996.6,N
1680191295.2,286047003.7,N
1680191315.1,286047004.2,N
1680191316.0,286047004.2,N
1680191335.8,286047010.7,N
1680191355.6,286047008.3,N
1680191375.5,286047012.2,N
1680191395.3,286047011.3,N
1680191415.2,286047009.4,N
1680191435.9,286047009.5,N
1680191455.7,286047006.2,N
1680191475.6,286047003.3,N
1680191495.4,286047003.0,N
1680191515.2,286047007.0,N
1680191535.1,286047008.4,N
1680191536.0,286047008.4,N
1680191555.8,286047008.9,N
1680191575.7,286047006.6,N
1680191595.5,286047004.7,N
1680191615.3,286047006.1,N
1680191635.2,286047008.3,N
1680191685.0,286047001.8,E
1680191695.9,286047003.4,N
1680191715.7,286047007.0,P
1680191735.5,286047009.2,P
1680191755.4,286047006.6,N
1680191775.2,286047008.1,Y
1680191795.1,286047001.1,P
1680191796.0,286047001.1,N
1680191815.8,286046998.5,N
1680191835.6,286047000.8,N
1680191855.5,286046998.8,N
1680191875.3,286046997.8,N
1680191895.2,286046993.5,N
1680191915.9,286046993.9,N
1680191935.7,286046990.9,N
1680191955.6,286046991.4,N
1680191975.4,286046990.6,N
1680191995.2,286046990.8,N
